Showing default

QZS-6, 62876

Orbit data source: Space-Track

QZS-6, 62876 is a Japanese payload satellite in GEO that was launched on Sun, 02 Feb 2025 UTC via a H3-22S launch vehicle from the Tanegashima Space Center (TNSTA). Payload-class satellites include a variety of spacecraft equipped with specific instruments for various scientific and technological missions. These include communications satellites like Starlink; space stations such as the ISS; scientific satellites like the Hubble; Earth observation satellites from companies like Planet Labs, Umbra, and HawkEye 360; GPS; miniature CubeSats for education and research; and military/defense satellites.

Not visible in the next 10 days
Identifier
62876, 2025-023A
Orbit
GEO
Country
Flag of JPJP / JPN
Related business
Manufacturer
MELCO
Mission
Operational Civil Nav/Com
Bus & Motor
QZSS, LAPS-500?
Mass
4,900 kg wet, ~2,000 kg dry
Launch date (UTC)
2025-02-02 (8 months ago)
Launch vehicle
H3-22S
Launch site
Tanegashima Space Center (TNSTA)
Object type
Payload
Rocket body
Debris
Shape & HBR
Box + 2 Pan, 12.7 m
Radar Cross Section
39.598 m²

Expand to show TLE details & history
Last TLE update: 13 hours ago

TLE from 13 hours ago
0 QZS-6
1 62876U 25023A   25261.13378115  .00000000  00000-0  00000-0 0  9996
2 62876   0.0238  46.2720 0001337 129.8683 319.8313  1.00271634  2235
Epoch: 2025-09-18T03:12Z
TLE epoch observation values (Epoch: 2025-09-18T03:12:38.691Z)
Latitude
0.00349°
Longitude
90.50252°
Altitude
35,781.795 km
Speed
3.075 km/s
True Right ascension
09h 03m 51s
True Declination
0° 00' 13"
Sunlit
Object was in daylight at epoch
Visualization orbit readout
Latitude
Unknown
Longitude
Unknown
Altitude
Unknown
Speed
Unknown
Apparent Right ascension
Unknown
Apparent Declination
Unknown
Sunlit
N/A
Visualization observer readout
Local Sidereal Time
09:18:40
Azimuth
Unknown
Elevation
Unknown
Doppler factor
Unknown
Orbital elements
Apogee altitude
35,793.345 km
Perigee altitude
35,782.07 km
Semi-major axis
42,165.845 km
Eccentricity
0.00013
Inclination
0.0238°
RAAN
46.272°
Arg. of periapsis
129.8683°
True anomaly
319.82142°
Mean anomaly
319.8313°
Eccentric anomaly
319.82636°
Mean motion
0.25067 °/min
Orbital period
1,436.15 mins
BSTAR
0
Loading maneuver chart data...
Computing Atmospheric mass density...
Loading historical data...
Loading historical data...
Loading historical data...
Loading historical data...
Loading historical data...
Loading historical data...
Loading historical data...
Other satellites on launch #23 in the year 2025 (2025-02-02 UTC)

Documentation

Showing up to 5 results
|